Stündliche Wetter Abzyabar

Heute, 22 Juni, Dienstag

Zeit Temperatur Niederschläge Wind Luftdruck Luftfeuchtigkeit
00:00 +23°C° 0 mm 1 m/S 757 mmHg 83%
01:00 +23°C° 0 mm 1 m/S 757 mmHg 84%
02:00 +23°C° 0 mm 1 m/S 757 mmHg 85%
03:00 +22°C° 0 mm 1 m/S 757 mmHg 85%
04:00 +23°C° 0 mm 2 m/S 757 mmHg 83%
05:00 +25°C° 0 mm 2 m/S 757 mmHg 80%
06:00 +26°C° 0 mm 2 m/S 758 mmHg 77%
07:00 +27°C° 0 mm 3 m/S 758 mmHg 71%
08:00 +28°C° 0 mm 3 m/S 758 mmHg 65%
09:00 +30°C° 0 mm 3 m/S 758 mmHg 59%
10:00 +31°C° 0 mm 3 m/S 758 mmHg 55%
11:00 +33°C° 0 mm 3 m/S 757 mmHg 51%
12:00 +34°C° 0 mm 3 m/S 757 mmHg 47%
13:00 +34°C° 0 mm 3 m/S 757 mmHg 47%
14:00 +34°C° 0 mm 3 m/S 757 mmHg 46%
15:00 +34°C° 0 mm 3 m/S 757 mmHg 46%
16:00 +33°C° 0 mm 3 m/S 757 mmHg 52%
17:00 +31°C° 0 mm 3 m/S 756 mmHg 58%
18:00 +30°C° 0 mm 3 m/S 756 mmHg 65%
19:00 +28°C° 0.4 mm 2 m/S 756 mmHg 69%
20:00 +27°C° 0.4 mm 2 m/S 757 mmHg 73%
21:00 +25°C° 0.4 mm 2 m/S 757 mmHg 77%
22:00 +24°C° 0.3 mm 2 m/S 757 mmHg 79%
23:00 +24°C° 0.3 mm 2 m/S 757 mmHg 80%

Morgen, 23 Juni, Mittwoch

Zeit Temperatur Niederschläge Wind Luftdruck Luftfeuchtigkeit
00:00 +23°C° 0.3 mm 2 m/S 757 mmHg 82%
01:00 +23°C° 0 mm 2 m/S 757 mmHg 84%
02:00 +21°C° 0 mm 2 m/S 756 mmHg 86%
03:00 +21°C° 0 mm 3 m/S 756 mmHg 88%
04:00 +22°C° 0 mm 3 m/S 756 mmHg 86%
05:00 +24°C° 0 mm 3 m/S 756 mmHg 83%
06:00 +25°C° 0 mm 3 m/S 756 mmHg 81%
07:00 +26°C° 0 mm 3 m/S 756 mmHg 74%
08:00 +28°C° 0 mm 3 m/S 756 mmHg 66%
09:00 +30°C° 0 mm 3 m/S 756 mmHg 59%
10:00 +31°C° 0 mm 3 m/S 756 mmHg 55%
11:00 +31°C° 0 mm 3 m/S 756 mmHg 51%
12:00 +33°C° 0 mm 3 m/S 756 mmHg 47%
13:00 +34°C° 0 mm 3 m/S 756 mmHg 46%
14:00 +34°C° 0 mm 3 m/S 756 mmHg 45%
15:00 +34°C° 0 mm 3 m/S 755 mmHg 45%
16:00 +31°C° 0.4 mm 3 m/S 755 mmHg 55%
17:00 +29°C° 0.4 mm 3 m/S 755 mmHg 66%
18:00 +27°C° 0.4 mm 4 m/S 755 mmHg 77%
19:00 +25°C° 0.7 mm 3 m/S 755 mmHg 81%
20:00 +22°C° 0.7 mm 3 m/S 756 mmHg 85%
21:00 +21°C° 0.7 mm 3 m/S 756 mmHg 89%
22:00 +21°C° 0.5 mm 3 m/S 756 mmHg 90%
23:00 +21°C° 0.5 mm 2 m/S 755 mmHg 91%

übermorgen, 24 Juni, Donnerstag

Zeit Temperatur Niederschläge Wind Luftdruck Luftfeuchtigkeit
00:00 +21°C° 0.5 mm 2 m/S 755 mmHg 92%
01:00 +21°C° 0.1 mm 2 m/S 755 mmHg 91%
02:00 +21°C° 0.1 mm 2 m/S 755 mmHg 89%
03:00 +20°C° 0.1 mm 2 m/S 756 mmHg 88%
04:00 +21°C° 0.2 mm 2 m/S 756 mmHg 86%
05:00 +23°C° 0.2 mm 1 m/S 756 mmHg 85%
06:00 +24°C° 0.2 mm 1 m/S 756 mmHg 83%
07:00 +25°C° 0 mm 1 m/S 756 mmHg 78%
08:00 +27°C° 0 mm 1 m/S 756 mmHg 73%
09:00 +28°C° 0 mm 2 m/S 756 mmHg 68%
10:00 +29°C° 0 mm 2 m/S 755 mmHg 64%
11:00 +30°C° 0 mm 2 m/S 755 mmHg 60%
12:00 +31°C° 0 mm 2 m/S 755 mmHg 56%
13:00 +32°C° 0 mm 2 m/S 755 mmHg 53%
14:00 +34°C° 0 mm 2 m/S 755 mmHg 51%
15:00 +34°C° 0 mm 2 m/S 755 mmHg 48%
16:00 +32°C° 0 mm 2 m/S 754 mmHg 54%
17:00 +33°C° 0 mm 3 m/S 754 mmHg 60%
18:00 +31°C° 0 mm 3 m/S 754 mmHg 66%
19:00 +28°C° 0.4 mm 2 m/S 754 mmHg 69%
20:00 +26°C° 0.4 mm 2 m/S 754 mmHg 71%
21:00 +24°C° 0.4 mm 2 m/S 754 mmHg 73%
22:00 +24°C° 0.1 mm 2 m/S 754 mmHg 77%
23:00 +23°C° 0.1 mm 2 m/S 754 mmHg 80%

25 Juni, Freitag

Zeit Temperatur Niederschläge Wind Luftdruck Luftfeuchtigkeit
00:00 +23°C° 0.1 mm 2 m/S 754 mmHg 84%
01:00 +23°C° 0 mm 2 m/S 753 mmHg 85%
02:00 +23°C° 0 mm 2 m/S 753 mmHg 86%
03:00 +23°C° 0 mm 2 m/S 753 mmHg 88%
04:00 +23°C° 0.2 mm 2 m/S 753 mmHg 87%
05:00 +24°C° 0.2 mm 2 m/S 753 mmHg 86%
06:00 +25°C° 0.2 mm 3 m/S 753 mmHg 85%
07:00 +26°C° 0 mm 3 m/S 753 mmHg 78%
08:00 +28°C° 0 mm 3 m/S 753 mmHg 72%
09:00 +30°C° 0 mm 3 m/S 753 mmHg 65%
10:00 +31°C° 0 mm 3 m/S 753 mmHg 61%
11:00 +33°C° 0 mm 3 m/S 753 mmHg 56%
12:00 +34°C° 0 mm 3 m/S 753 mmHg 52%
13:00 +34°C° 0 mm 3 m/S 753 mmHg 50%
14:00 +35°C° 0 mm 3 m/S 752 mmHg 48%
15:00 +35°C° 0 mm 3 m/S 752 mmHg 46%
16:00 +34°C° 0 mm 2 m/S 752 mmHg 52%
17:00 +32°C° 0 mm 2 m/S 751 mmHg 59%
18:00 +31°C° 0 mm 2 m/S 751 mmHg 65%
19:00 +30°C° 0 mm 2 m/S 751 mmHg 69%
20:00 +28°C° 0 mm 2 m/S 751 mmHg 72%
21:00 +27°C° 0 mm 2 m/S 751 mmHg 76%
22:00 +25°C° 0.3 mm 2 m/S 751 mmHg 80%
23:00 +23°C° 0.3 mm 2 m/S 751 mmHg 83%

26 Juni, Samstag

Zeit Temperatur Niederschläge Wind Luftdruck Luftfeuchtigkeit
00:00 +21°C° 0.3 mm 2 m/S 751 mmHg 87%
01:00 +21°C° 0 mm 2 m/S 751 mmHg 88%
02:00 +21°C° 0 mm 1 m/S 751 mmHg 88%
03:00 +21°C° 0 mm 1 m/S 751 mmHg 88%
04:00 +22°C° 0 mm 1 m/S 751 mmHg 84%
05:00 +23°C° 0 mm 1 m/S 751 mmHg 81%
06:00 +25°C° 0 mm 1 m/S 751 mmHg 78%
07:00 +26°C° 0 mm 1 m/S 751 mmHg 73%
08:00 +27°C° 0 mm 2 m/S 750 mmHg 68%
09:00 +29°C° 0 mm 2 m/S 750 mmHg 63%
10:00 +30°C° 0 mm 2 m/S 750 mmHg 60%
11:00 +31°C° 0 mm 2 m/S 750 mmHg 57%
12:00 +32°C° 0 mm 2 m/S 750 mmHg 54%
13:00 +32°C° 0 mm 1 m/S 750 mmHg 52%
14:00 +33°C° 0 mm 1 m/S 750 mmHg 50%
15:00 +33°C° 0 mm 1 m/S 749 mmHg 48%
16:00 +32°C° 0.1 mm 2 m/S 749 mmHg 54%
17:00 +31°C° 0.1 mm 2 m/S 748 mmHg 60%
18:00 +31°C° 0.1 mm 2 m/S 748 mmHg 66%
19:00 +28°C° 2.5 mm 3 m/S 748 mmHg 69%
20:00 +25°C° 2.5 mm 4 m/S 748 mmHg 73%
21:00 +21°C° 2.5 mm 5 m/S 749 mmHg 76%
22:00 +21°C° 0.2 mm 4 m/S 748 mmHg 81%
23:00 +21°C° 0.2 mm 2 m/S 748 mmHg 86%

27 Juni, Sonntag

Zeit Temperatur Niederschläge Wind Luftdruck Luftfeuchtigkeit
00:00 +22°C° 0.2 mm 1 m/S 748 mmHg 90%
01:00 +22°C° 0 mm 1 m/S 748 mmHg 91%
02:00 +22°C° 0 mm 1 m/S 748 mmHg 91%
03:00 +21°C° 0 mm 1 m/S 747 mmHg 91%
04:00 +21°C° 0 mm 2 m/S 748 mmHg 89%
05:00 +21°C° 0 mm 3 m/S 748 mmHg 88%
06:00 +22°C° 0 mm 4 m/S 748 mmHg 86%
07:00 +23°C° 0 mm 4 m/S 748 mmHg 81%
08:00 +25°C° 0 mm 4 m/S 748 mmHg 77%
09:00 +26°C° 0 mm 4 m/S 748 mmHg 72%
10:00 +26°C° 0 mm 4 m/S 748 mmHg 71%
11:00 +27°C° 0 mm 5 m/S 748 mmHg 69%
12:00 +27°C° 0 mm 5 m/S 748 mmHg 68%
13:00 +27°C° 0.1 mm 6 m/S 749 mmHg 67%
14:00 +27°C° 0.1 mm 6 m/S 749 mmHg 67%
15:00 +27°C° 0.1 mm 6 m/S 749 mmHg 66%
16:00 +26°C° 0 mm 6 m/S 749 mmHg 65%
17:00 +26°C° 0 mm 6 m/S 750 mmHg 63%
18:00 +24°C° 0 mm 6 m/S 750 mmHg 62%
19:00 +22°C° 0 mm 5 m/S 750 mmHg 65%
20:00 +20°C° 0 mm 4 m/S 750 mmHg 68%
21:00 +18°C° 0 mm 3 m/S 751 mmHg 71%
22:00 +18°C° 0 mm 3 m/S 751 mmHg 71%
23:00 +17°C° 0 mm 3 m/S 751 mmHg 72%
Mehr zeigen

Wir brauchen deine Erlaubnis

Meteoprog und unser Service Anbieter werden persönliche Daten aufbewahren, so wie Cookies, Geräte Bezeichnung oder ähnliche Technologien von deinem Gerät und Prozess, so wie Persönliche Daten Inhalte und Werbungen, genauso wie social Media und den Verkehr zu analysieren.

  • Aufbewahrung und/oder Zugang zu deiner Geräte Informationen.

    Cookies, Geräte Bezeichnung oder andere Informationen, können aufbewahrt oder Zugang zu deinem Gerät erhalten, für den Grund, der oben angegeben wird.

  • Personalisierte Werbung und Inhalte, Messungen, Einblick in das Publikum und Produkt Entwicklung.

    Werbungen und Inhalte können personalisiert werden, basierend auf ein Profil. Mehr Daten können besser personalisierte Werbungen und Inhalte hinzufügen. Werbung und Inhalte können gezeigt und gemessen werden. Einblicke über das Publikum, welche die Werbung gesehen haben und den Inhalt, können abgeleitet werden. So wie Daten können genutzt werden, um es zu verbessern oder die Benutzer Erfahrung zu verbessern das System und die Software.

Wenn du “Ich stimme zu” klickst, erlaubst du uns, die Cookies zu benutzen die Geräte Bezeichnung, den Web oder ähnliche Technologien zu benutzen. Deine Settings, können in deinem Gerät bei deinem Browser geändert werden.

Für den bestimmten Zweck, berechtigten Interessen beruhen darauf, mehr als auf den Inhalt. Du kannst mehr darüber in unseren Privaten und Cookie Politik lesen.